owner,sensor,date,latitude,longitude,vertical_datum,direction_of_sea_water_velocity,sea_water_speed,upward_sea_water_velocity,qcFlag 
CenGOOS,ioos:station:wmo:42067:1,2009-07-01T00:40:00Z,30.0430,-88.6490,2.0,6.7612385100372,31.257383127831,-99999.0,'1111122,1111122,1199999999' 
CenGOOS,ioos:station:wmo:42067:1,2009-07-01T01:40:00Z,30.0430,-88.6490,2.0,18.201414287808,36.464526597777,-99999.0,'1111122,1111122,1199999999' 
CenGOOS,ioos:station:wmo:42067:1,2009-07-01T02:40:00Z,30.0430,-88.6490,2.0,36.157089666791,32.47451308334,-99999.0,'1111122,1111122,1199999999' 
CenGOOS,ioos:station:wmo:42067:1,2009-07-01T03:40:00Z,30.0430,-88.6490,2.0,59.346560247704,32.931641319558,-99999.0,'1111122,1111122,1199999999' 
CenGOOS,ioos:station:wmo:42067:1,2009-07-01T04:40:00Z,30.0430,-88.6490,2.0,76.975064281713,36.827495163261,-99999.0,'1111122,1111122,1199999999' 
CenGOOS,ioos:station:wmo:42067:1,2009-07-01T05:40:00Z,30.0430,-88.6490,2.0,80.715125565197,32.911191105762,-99999.0,'1111122,1111122,1199999999' 
CenGOOS,ioos:station:wmo:42067:1,2009-07-01T07:40:00Z,30.0430,-88.6490,2.0,110.9897220745,25.823528031623,-99999.0,'1111122,1111122,1199999999' 
CenGOOS,ioos:station:wmo:42067:1,2009-07-01T13:40:00Z,30.0430,-88.6490,2.0,185.77366163201,28.926743681237,-99999.0,'1111122,1111122,1199999999' 
CenGOOS,ioos:station:wmo:42067:1,2009-07-01T14:40:00Z,30.0430,-88.6490,2.0,206.68341325058,30.307730037071,-99999.0,'1111122,1111122,1199999999' 
CenGOOS,ioos:station:wmo:42067:1,2009-07-01T15:40:00Z,30.0430,-88.6490,2.0,206.85320857743,26.676628347675,-99999.0,'1111122,1111122,1199999999' 
CenGOOS,ioos:station:wmo:42067:1,2009-07-01T16:40:00Z,30.0430,-88.6490,2.0,208.86743333944,23.488731340794,-99999.0,'1111122,1111122,1199999999' 
CenGOOS,ioos:station:wmo:42067:1,2009-07-01T17:40:00Z,30.0430,-88.6490,2.0,219.18893298567,20.462758856029,-99999.0,'1111122,1111122,1199999999' 
CenGOOS,ioos:station:wmo:42067:1,2009-07-01T18:40:00Z,30.0430,-88.6490,2.0,234.16234704572,13.322161986705,-99999.0,'1111122,1111122,1199999999' 
CenGOOS,ioos:station:wmo:42067:1,2009-07-01T19:40:00Z,30.0430,-88.6490,2.0,104.18876071065,2.7333861783509,-99999.0,'1111122,1111122,1199999999' 
CenGOOS,ioos:station:wmo:42067:1,2009-07-01T20:40:00Z,30.0430,-88.6490,2.0,296.60732028008,12.123963873255,-99999.0,'1111122,1111122,1199999999' 
CenGOOS,ioos:station:wmo:42067:1,2009-07-01T21:40:00Z,30.0430,-88.6490,2.0,313.32991062829,8.9769983847609,-99999.0,'1111122,1111122,1199999999' 
CenGOOS,ioos:station:wmo:42067:1,2009-07-01T23:40:00Z,30.0430,-88.6490,2.0,341.44543594477,7.573671500666,-99999.0,'1111122,1111122,1199999999' 
CenGOOS,ioos:station:wmo:42067:1,2009-07-02T03:40:00Z,30.0430,-88.6490,2.0,17.119044418035,10.327560215269,-99999.0,'1111122,1111122,1199999999' 
CenGOOS,ioos:station:wmo:42067:1,2009-07-02T05:40:00Z,30.0430,-88.6490,2.0,94.162921585119,3.1683591968083,-99999.0,'1111122,1111122,1199999999' 
CenGOOS,ioos:station:wmo:42067:1,2009-07-02T09:40:00Z,30.0430,-88.6490,2.0,131.98498161237,19.090023572537,-99999.0,'1111122,1111122,1199999999' 
CenGOOS,ioos:station:wmo:42067:1,2009-07-02T10:40:00Z,30.0430,-88.6490,2.0,122.81070526801,19.156053873384,-99999.0,'1111122,1111122,1199999999' 
CenGOOS,ioos:station:wmo:42067:1,2009-07-02T11:40:00Z,30.0430,-88.6490,2.0,151.34817154735,19.896311215901,-99999.0,'1111122,1111122,1199999999' 
CenGOOS,ioos:station:wmo:42067:1,2009-07-02T13:40:00Z,30.0430,-88.6490,2.0,186.95804979263,13.620312037542,-99999.0,'1111122,1111122,1199999999' 
CenGOOS,ioos:station:wmo:42067:1,2009-07-02T17:40:00Z,30.0430,-88.6490,2.0,186.58987828307,24.834077393775,-99999.0,'1111122,1111122,1199999999' 
CenGOOS,ioos:station:wmo:42067:1,2009-07-02T19:40:00Z,30.0430,-88.6490,2.0,179.13093581001,17.141971881904,-99999.0,'1111122,1111122,1199999999' 
CenGOOS,ioos:station:wmo:42067:1,2009-07-02T21:40:00Z,30.0430,-88.6490,2.0,356.26536467046,3.8381505963159,-99999.0,'1111122,1111122,1199999999' 
CenGOOS,ioos:station:wmo:42067:1,2009-07-02T23:40:00Z,30.0430,-88.6490,2.0,21.638614699224,13.071147616028,-99999.0,'1111122,1111122,1199999999' 
CenGOOS,ioos:station:wmo:42067:1,2009-07-03T01:40:00Z,30.0430,-88.6490,2.0,51.104422902667,24.66941628819,-99999.0,'1111122,1111122,1199999999' 
CenGOOS,ioos:station:wmo:42067:1,2009-07-03T06:40:00Z,30.0430,-88.6490,2.0,117.92106248791,10.015917331927,-99999.0,'1111122,1111122,1199999999' 
CenGOOS,ioos:station:wmo:42067:1,2009-07-03T07:40:00Z,30.0430,-88.6490,2.0,161.98023071822,18.329042528185,-99999.0,'1111122,1111122,1199999999' 
CenGOOS,ioos:station:wmo:42067:1,2009-07-03T08:40:00Z,30.0430,-88.6490,2.0,201.95559581898,3.4502318762657,-99999.0,'1111122,1111122,1199999999' 
CenGOOS,ioos:station:wmo:42067:1,2009-07-03T09:40:00Z,30.0430,-88.6490,2.0,236.91096079425,12.16247096605,-99999.0,'1111122,1111122,1199999999' 
CenGOOS,ioos:station:wmo:42067:1,2009-07-03T10:40:00Z,30.0430,-88.6490,2.0,233.16321172898,6.9220011557352,-99999.0,'1111122,1111122,1199999999' 
CenGOOS,ioos:station:wmo:42067:1,2009-07-03T12:40:00Z,30.0430,-88.6490,2.0,227.45838427037,22.584563312139,-99999.0,'1111122,1111122,1199999999' 
CenGOOS,ioos:station:wmo:42067:1,2009-07-03T13:40:00Z,30.0430,-88.6490,2.0,222.698571268,17.960857440557,-99999.0,'1111122,1111122,1199999999' 
CenGOOS,ioos:station:wmo:42067:1,2009-07-03T14:40:00Z,30.0430,-88.6490,2.0,209.9332085883,17.735822507005,-99999.0,'1111122,1111122,1199999999' 
CenGOOS,ioos:station:wmo:42067:1,2009-07-03T15:40:00Z,30.0430,-88.6490,2.0,276.58010009335,11.868180146931,-99999.0,'1111122,1111122,1199999999' 
CenGOOS,ioos:station:wmo:42067:1,2009-07-03T16:40:00Z,30.0430,-88.6490,2.0,231.36943920611,6.1188887880072,-99999.0,'1111122,1111122,1199999999' 
CenGOOS,ioos:station:wmo:42067:1,2009-07-03T17:40:00Z,30.0430,-88.6490,2.0,177.84828052795,3.4624413352431,-99999.0,'1111122,1111122,1199999999' 
CenGOOS,ioos:station:wmo:42067:1,2009-07-03T21:40:00Z,30.0430,-88.6490,2.0,99.680100556161,9.515482121259,-99999.0,'1111122,1111122,1199999999' 
CenGOOS,ioos:station:wmo:42067:1,2009-07-03T23:40:00Z,30.0430,-88.6490,2.0,118.90918365115,13.77676304507,-99999.0,'1111122,1111122,1199999999' 
CenGOOS,ioos:station:wmo:42067:1,2009-07-04T00:40:00Z,30.0430,-88.6490,2.0,121.68636768786,9.5189285111298,-99999.0,'1111122,1111122,1199999999' 
CenGOOS,ioos:station:wmo:42067:1,2009-07-04T02:40:00Z,30.0430,-88.6490,2.0,118.18619709073,4.7423622805518,-99999.0,'1111122,1111122,1199999999' 
CenGOOS,ioos:station:wmo:42067:1,2009-07-04T03:40:00Z,30.0430,-88.6490,2.0,224.83582916128,2.4678127967899,-99999.0,'1111122,1111122,1199999999' 
CenGOOS,ioos:station:wmo:42067:1,2009-07-04T04:40:00Z,30.0430,-88.6490,2.0,24.646770851931,1.8704010265181,-99999.0,'1111122,1111122,1199999999' 
CenGOOS,ioos:station:wmo:42067:1,2009-07-04T09:40:00Z,30.0430,-88.6490,2.0,75.181852749119,5.8650575444747,-99999.0,'1111122,1111122,1199999999' 
CenGOOS,ioos:station:wmo:42067:1,2009-07-04T11:40:00Z,30.0430,-88.6490,2.0,51.894805285277,7.4217248669026,-99999.0,'1111122,1111122,1199999999' 
CenGOOS,ioos:station:wmo:42067:1,2009-07-04T13:40:00Z,30.0430,-88.6490,2.0,32.828541791413,0.73783466982787,-99999.0,'1111122,1111122,1199999999' 
CenGOOS,ioos:station:wmo:42067:1,2009-07-04T15:40:00Z,30.0430,-88.6490,2.0,146.38965753321,5.9796739041523,-99999.0,'1111122,1111122,1199999999' 
CenGOOS,ioos:station:wmo:42067:1,2009-07-04T17:40:00Z,30.0430,-88.6490,2.0,187.65108664152,19.453187399498,-99999.0,'1111122,1111122,1199999999' 
CenGOOS,ioos:station:wmo:42067:1,2009-07-04T19:40:00Z,30.0430,-88.6490,2.0,168.86369056882,27.181821131043,-99999.0,'1111122,1111122,1199999999' 
CenGOOS,ioos:station:wmo:42067:1,2009-07-04T23:40:00Z,30.0430,-88.6490,2.0,168.668315143,10.331398743636,-99999.0,'1111122,1111122,1199999999' 
CenGOOS,ioos:station:wmo:42067:1,2009-07-05T00:40:00Z,30.0430,-88.6490,2.0,174.82732347524,4.7694234452395,-99999.0,'1111122,1111122,1199999999' 
CenGOOS,ioos:station:wmo:42067:1,2009-07-05T01:40:00Z,30.0430,-88.6490,2.0,156.26706019593,1.2671621837792,-99999.0,'1111122,1111122,1199999999' 
CenGOOS,ioos:station:wmo:42067:1,2009-07-05T02:40:00Z,30.0430,-88.6490,2.0,178.88035531947,3.0705862632403,-99999.0,'1111122,1111122,1199999999' 
CenGOOS,ioos:station:wmo:42067:1,2009-07-05T04:40:00Z,30.0430,-88.6490,2.0,337.23546011849,10.053108971855,-99999.0,'1111122,1111122,1199999999' 
CenGOOS,ioos:station:wmo:42067:1,2009-07-05T06:40:00Z,30.0430,-88.6490,2.0,29.242682675889,6.5095929212202,-99999.0,'1111122,1111122,1199999999' 
CenGOOS,ioos:station:wmo:42067:1,2009-07-05T12:40:00Z,30.0430,-88.6490,2.0,65.487197686032,22.728556927355,-99999.0,'1111122,1111122,1199999999' 
CenGOOS,ioos:station:wmo:42067:1,2009-07-05T13:40:00Z,30.0430,-88.6490,2.0,109.24139500587,10.559891097923,-99999.0,'1111122,1111122,1199999999' 
CenGOOS,ioos:station:wmo:42067:1,2009-07-05T14:40:00Z,30.0430,-88.6490,2.0,95.382227274135,6.0767919167929,-99999.0,'1111122,1111122,1199999999' 
CenGOOS,ioos:station:wmo:42067:1,2009-07-05T15:40:00Z,30.0430,-88.6490,2.0,161.73711005781,10.5304320899,-99999.0,'1111122,1111122,1199999999' 
CenGOOS,ioos:station:wmo:42067:1,2009-07-05T16:40:00Z,30.0430,-88.6490,2.0,152.11453522883,20.183636936885,-99999.0,'1111122,1111122,1199999999' 
CenGOOS,ioos:station:wmo:42067:1,2009-07-05T18:40:00Z,30.0430,-88.6490,2.0,172.23308154911,29.450174872146,-99999.0,'1111122,1111122,1199999999' 
CenGOOS,ioos:station:wmo:42067:1,2009-07-05T19:40:00Z,30.0430,-88.6490,2.0,174.16729660267,43.887209981953,-99999.0,'1111122,1111122,1199999999' 
CenGOOS,ioos:station:wmo:42067:1,2009-07-05T20:40:00Z,30.0430,-88.6490,2.0,176.18058041017,28.523351836697,-99999.0,'1111122,1111122,1199999999' 
CenGOOS,ioos:station:wmo:42067:1,2009-07-05T22:40:00Z,30.0430,-88.6490,2.0,159.31047621114,10.04800975318,-99999.0,'1111122,1111122,1199999999' 
CenGOOS,ioos:station:wmo:42067:1,2009-07-06T02:40:00Z,30.0430,-88.6490,2.0,16.790143668317,15.093445597345,-99999.0,'1111122,1111122,1199999999' 
CenGOOS,ioos:station:wmo:42067:1,2009-07-06T04:40:00Z,30.0430,-88.6490,2.0,31.347583661552,16.896419739104,-99999.0,'1111122,1111122,1199999999' 
CenGOOS,ioos:station:wmo:42067:1,2009-07-06T06:40:00Z,30.0430,-88.6490,2.0,59.098544037262,23.658243806335,-99999.0,'1111122,1111122,1199999999' 
CenGOOS,ioos:station:wmo:42067:1,2009-07-06T08:40:00Z,30.0430,-88.6490,2.0,71.246412657335,18.19602703889,-99999.0,'1111122,1111122,1199999999' 
CenGOOS,ioos:station:wmo:42067:1,2009-07-06T10:40:00Z,30.0430,-88.6490,2.0,73.409022152388,9.6309604920797,-99999.0,'1111122,1111122,1199999999' 
CenGOOS,ioos:station:wmo:42067:1,2009-07-06T14:40:00Z,30.0430,-88.6490,2.0,199.95717412637,13.213496887652,-99999.0,'1111122,1111122,1199999999' 
CenGOOS,ioos:station:wmo:42067:1,2009-07-06T16:40:00Z,30.0430,-88.6490,2.0,136.94413562671,18.133584863452,-99999.0,'1111122,1111122,1199999999' 
CenGOOS,ioos:station:wmo:42067:1,2009-07-06T18:40:00Z,30.0430,-88.6490,2.0,160.55594243929,15.801189828617,-99999.0,'1111122,1111122,1199999999' 
CenGOOS,ioos:station:wmo:42067:1,2009-07-06T22:40:00Z,30.0430,-88.6490,2.0,158.62398518672,21.509683865645,-99999.0,'1111122,1111122,1199999999' 
CenGOOS,ioos:station:wmo:42067:1,2009-07-07T00:40:00Z,30.0430,-88.6490,2.0,175.80109343762,16.935456887843,-99999.0,'1111122,1111122,1199999999' 
CenGOOS,ioos:station:wmo:42067:1,2009-07-07T02:40:00Z,30.0430,-88.6490,2.0,281.3626424679,4.2635665821,-99999.0,'1111122,1111122,1199999999' 
CenGOOS,ioos:station:wmo:42067:1,2009-07-07T05:40:00Z,30.0430,-88.6490,2.0,356.18015461688,19.814017765209,-99999.0,'1111122,1111122,1199999999' 
CenGOOS,ioos:station:wmo:42067:1,2009-07-07T06:40:00Z,30.0430,-88.6490,2.0,357.76932436677,14.901291890303,-99999.0,'1111122,1111122,1199999999' 
CenGOOS,ioos:station:wmo:42067:1,2009-07-07T07:40:00Z,30.0430,-88.6490,2.0,11.909017696823,15.943152135008,-99999.0,'1111122,1111122,1199999999' 
CenGOOS,ioos:station:wmo:42067:1,2009-07-07T08:40:00Z,30.0430,-88.6490,2.0,18.491425669602,12.832528979122,-99999.0,'1111122,1111122,1199999999' 
CenGOOS,ioos:station:wmo:42067:1,2009-07-07T09:40:00Z,30.0430,-88.6490,2.0,29.609582844978,11.030439701118,-99999.0,'1111122,1111122,1199999999' 
CenGOOS,ioos:station:wmo:42067:1,2009-07-07T10:40:00Z,30.0430,-88.6490,2.0,79.305392335916,9.8612879483362,-99999.0,'1111122,1111122,1199999999' 
CenGOOS,ioos:station:wmo:42067:1,2009-07-07T11:40:00Z,30.0430,-88.6490,2.0,103.30374179273,17.643483216191,-99999.0,'1111122,1111122,1199999999' 
CenGOOS,ioos:station:wmo:42067:1,2009-07-07T12:40:00Z,30.0430,-88.6490,2.0,131.69384790104,18.146277855252,-99999.0,'1111122,1111122,1199999999' 
CenGOOS,ioos:station:wmo:42067:1,2009-07-07T13:40:00Z,30.0430,-88.6490,2.0,134.17650341041,13.775862949376,-99999.0,'1111122,1111122,1199999999' 
CenGOOS,ioos:station:wmo:42067:1,2009-07-07T14:40:00Z,30.0430,-88.6490,2.0,119.82535284447,11.480666356967,-99999.0,'1111122,1111122,1199999999' 
CenGOOS,ioos:station:wmo:42067:1,2009-07-07T15:40:00Z,30.0430,-88.6490,2.0,140.01503759425,14.721752613055,-99999.0,'1111122,1111122,1199999999' 
CenGOOS,ioos:station:wmo:42067:1,2009-07-07T17:40:00Z,30.0430,-88.6490,2.0,128.44658944379,22.242421181157,-99999.0,'1111122,1111122,1199999999' 
CenGOOS,ioos:station:wmo:42067:1,2009-07-07T19:40:00Z,30.0430,-88.6490,2.0,148.94923399873,22.586389707078,-99999.0,'1111122,1111122,1199999999' 
CenGOOS,ioos:station:wmo:42067:1,2009-07-12T15:40:00Z,30.0430,-88.6490,2.0,208.68055610508,8.4804775808913,-99999.0,'1111122,1111122,1199999999' 
CenGOOS,ioos:station:wmo:42067:1,2009-07-12T17:40:00Z,30.0430,-88.6490,2.0,159.08051627744,3.1367658503624,-99999.0,'1111122,1111122,1199999999' 
CenGOOS,ioos:station:wmo:42067:1,2009-07-12T20:40:00Z,30.0430,-88.6490,2.0,142.26324474058,1.4541664278892,-99999.0,'1111122,1111122,1199999999' 
CenGOOS,ioos:station:wmo:42067:1,2009-07-12T22:40:00Z,30.0430,-88.6490,2.0,166.87358821086,4.887709074812,-99999.0,'1111122,1111122,1199999999' 
CenGOOS,ioos:station:wmo:42067:1,2009-07-12T23:40:00Z,30.0430,-88.6490,2.0,140.25434380322,8.5707934288489,-99999.0,'1111122,1111122,1199999999' 
CenGOOS,ioos:station:wmo:42067:1,2009-07-13T00:40:00Z,30.0430,-88.6490,2.0,109.26656709297,16.122989797181,-99999.0,'1111122,1111122,1199999999' 
CenGOOS,ioos:station:wmo:42067:1,2009-07-13T02:40:00Z,30.0430,-88.6490,2.0,111.73314801638,21.821074675643,-99999.0,'1111122,1111122,1199999999' 
CenGOOS,ioos:station:wmo:42067:1,2009-07-13T04:40:00Z,30.0430,-88.6490,2.0,100.3248136328,20.5324718434,-99999.0,'1111122,1111122,1199999999' 
CenGOOS,ioos:station:wmo:42067:1,2009-07-13T06:40:00Z,30.0430,-88.6490,2.0,142.13023596987,19.254931835766,-99999.0,'1111122,1111122,1199999999' 
CenGOOS,ioos:station:wmo:42067:1,2009-07-13T09:40:00Z,30.0430,-88.6490,2.0,142.41754273481,7.5585845235732,-99999.0,'1111122,1111122,1199999999' 
CenGOOS,ioos:station:wmo:42067:1,2009-07-13T10:40:00Z,30.0430,-88.6490,2.0,132.50641178506,26.166514861555,-99999.0,'1111122,1111122,1199999999' 
CenGOOS,ioos:station:wmo:42067:1,2009-07-13T11:40:00Z,30.0430,-88.6490,2.0,126.58104848575,11.108141158628,-99999.0,'1111122,1111122,1199999999' 
CenGOOS,ioos:station:wmo:42067:1,2009-07-13T12:40:00Z,30.0430,-88.6490,2.0,142.56069765765,29.181441019936,-99999.0,'1111122,1111122,1199999999' 
CenGOOS,ioos:station:wmo:42067:1,2009-07-13T14:40:00Z,30.0430,-88.6490,2.0,167.21455734684,9.4441622180054,-99999.0,'1111122,1111122,1199999999' 
CenGOOS,ioos:station:wmo:42067:1,2009-07-13T16:40:00Z,30.0430,-88.6490,2.0,172.33679121868,18.222746774293,-99999.0,'1111122,1111122,1199999999' 
CenGOOS,ioos:station:wmo:42067:1,2009-07-13T18:40:00Z,30.0430,-88.6490,2.0,151.026578398,23.306998948814,-99999.0,'1111122,1111122,1199999999' 
CenGOOS,ioos:station:wmo:42067:1,2009-07-13T20:40:00Z,30.0430,-88.6490,2.0,183.36792479292,22.979688857772,-99999.0,'1111122,1111122,1199999999' 
CenGOOS,ioos:station:wmo:42067:1,2009-07-14T00:40:00Z,30.0430,-88.6490,2.0,54.428409350481,7.856016802426,-99999.0,'1111122,1111122,1199999999' 
CenGOOS,ioos:station:wmo:42067:1,2009-07-14T02:40:00Z,30.0430,-88.6490,2.0,321.17604857318,9.2673890605715,-99999.0,'1111122,1111122,1199999999' 
CenGOOS,ioos:station:wmo:42067:1,2009-07-14T04:40:00Z,30.0430,-88.6490,2.0,32.991027574126,16.822535480718,-99999.0,'1111122,1111122,1199999999' 
CenGOOS,ioos:station:wmo:42067:1,2009-07-14T05:40:00Z,30.0430,-88.6490,2.0,53.844278682825,14.441121840079,-99999.0,'1111122,1111122,1199999999' 
CenGOOS,ioos:station:wmo:42067:1,2009-07-14T06:40:00Z,30.0430,-88.6490,2.0,33.411515218349,16.54412886797,-99999.0,'1111122,1111122,1199999999' 
CenGOOS,ioos:station:wmo:42067:1,2009-07-14T07:40:00Z,30.0430,-88.6490,2.0,7.3875381292715,14.076849789637,-99999.0,'1111122,1111122,1199999999' 
CenGOOS,ioos:station:wmo:42067:1,2009-07-14T08:40:00Z,30.0430,-88.6490,2.0,36.168091349031,16.16521264939,-99999.0,'1111122,1111122,1199999999' 
CenGOOS,ioos:station:wmo:42067:1,2009-07-14T12:40:00Z,30.0430,-88.6490,2.0,124.88636095217,41.314755233451,-99999.0,'1111122,1111122,1199999999' 
CenGOOS,ioos:station:wmo:42067:1,2009-07-14T13:40:00Z,30.0430,-88.6490,2.0,130.01071334103,42.197384990068,-99999.0,'1111122,1111122,1199999999' 
CenGOOS,ioos:station:wmo:42067:1,2009-07-14T14:40:00Z,30.0430,-88.6490,2.0,134.88818168077,36.232220467424,-99999.0,'1111122,1111122,1199999999' 
CenGOOS,ioos:station:wmo:42067:1,2009-07-14T16:40:00Z,30.0430,-88.6490,2.0,150.63721226853,37.198844068062,-99999.0,'1111122,1111122,1199999999' 
CenGOOS,ioos:station:wmo:42067:1,2009-07-14T18:40:00Z,30.0430,-88.6490,2.0,164.57617790996,22.936043686739,-99999.0,'1111122,1111122,1199999999' 
CenGOOS,ioos:station:wmo:42067:1,2009-07-14T20:40:00Z,30.0430,-88.6490,2.0,163.86158142837,17.124838685372,-99999.0,'1111122,1111122,1199999999' 
CenGOOS,ioos:station:wmo:42067:1,2009-07-14T22:40:00Z,30.0430,-88.6490,2.0,242.21297010196,14.050174376142,-99999.0,'1111122,1111122,1199999999' 
CenGOOS,ioos:station:wmo:42067:1,2009-07-15T00:40:00Z,30.0430,-88.6490,2.0,281.06969013,23.853815208473,-99999.0,'1111122,1111122,1199999999' 
CenGOOS,ioos:station:wmo:42067:1,2009-07-15T03:40:00Z,30.0430,-88.6490,2.0,348.07094147589,29.946721022509,-99999.0,'1111122,1111122,1199999999' 
CenGOOS,ioos:station:wmo:42067:1,2009-07-15T04:40:00Z,30.0430,-88.6490,2.0,4.3026087951642,29.723769949318,-99999.0,'1111122,1111122,1199999999' 
CenGOOS,ioos:station:wmo:42067:1,2009-07-15T05:40:00Z,30.0430,-88.6490,2.0,16.620255030337,32.654244747046,-99999.0,'1111122,1111122,1199999999' 
CenGOOS,ioos:station:wmo:42067:1,2009-07-15T06:40:00Z,30.0430,-88.6490,2.0,26.943312078152,33.192916412994,-99999.0,'1111122,1111122,1199999999' 
CenGOOS,ioos:station:wmo:42067:1,2009-07-15T07:40:00Z,30.0430,-88.6490,2.0,48.405196625977,27.023835775108,-99999.0,'1111122,1111122,1199999999' 
CenGOOS,ioos:station:wmo:42067:1,2009-07-15T09:40:00Z,30.0430,-88.6490,2.0,158.99993941637,12.082520432426,-99999.0,'1111122,1111122,1199999999' 
CenGOOS,ioos:station:wmo:42067:1,2009-07-15T11:40:00Z,30.0430,-88.6490,2.0,249.28367233902,6.2757708689849,-99999.0,'1111122,1111122,1199999999' 
CenGOOS,ioos:station:wmo:42067:1,2009-07-15T15:40:00Z,30.0430,-88.6490,2.0,143.34449762564,17.638123482956,-99999.0,'1111122,1111122,1199999999' 
CenGOOS,ioos:station:wmo:42067:1,2009-07-15T16:40:00Z,30.0430,-88.6490,2.0,146.37034979382,15.781229356422,-99999.0,'1111122,1111122,1199999999' 
CenGOOS,ioos:station:wmo:42067:1,2009-07-15T17:40:00Z,30.0430,-88.6490,2.0,152.95509589231,13.349794005901,-99999.0,'1111122,1111122,1199999999' 
CenGOOS,ioos:station:wmo:42067:1,2009-07-15T19:40:00Z,30.0430,-88.6490,2.0,193.63905205237,4.1983925495361,-99999.0,'1111122,1111122,1199999999' 
CenGOOS,ioos:station:wmo:42067:1,2009-07-15T21:40:00Z,30.0430,-88.6490,2.0,353.44021515678,6.9152729519521,-99999.0,'1111122,1111122,1199999999' 
CenGOOS,ioos:station:wmo:42067:1,2009-07-15T23:40:00Z,30.0430,-88.6490,2.0,13.220241813216,12.943013559446,-99999.0,'1111122,1111122,1199999999' 
CenGOOS,ioos:station:wmo:42067:1,2009-07-16T01:40:00Z,30.0430,-88.6490,2.0,84.646002865248,19.505096769819,-99999.0,'1111122,1111122,1199999999' 
CenGOOS,ioos:station:wmo:42067:1,2009-07-16T06:40:00Z,30.0430,-88.6490,2.0,94.352703133236,15.28408322406,-99999.0,'1111122,1111122,1199999999' 
CenGOOS,ioos:station:wmo:42067:1,2009-07-16T08:40:00Z,30.0430,-88.6490,2.0,101.94628225787,5.1209081225892,-99999.0,'1111122,1111122,1199999999' 
CenGOOS,ioos:station:wmo:42067:1,2009-07-16T10:40:00Z,30.0430,-88.6490,2.0,118.52423408061,19.621786361083,-99999.0,'1111122,1111122,1199999999' 
CenGOOS,ioos:station:wmo:42067:1,2009-07-16T11:40:00Z,30.0430,-88.6490,2.0,119.37758639133,23.60553536779,-99999.0,'1111122,1111122,1199999999' 
CenGOOS,ioos:station:wmo:42067:1,2009-07-16T12:40:00Z,30.0430,-88.6490,2.0,112.46452547347,23.26547012205,-99999.0,'1111122,1111122,1199999999' 
CenGOOS,ioos:station:wmo:42067:1,2009-07-16T13:40:00Z,30.0430,-88.6490,2.0,133.37561196473,34.174061801314,-99999.0,'1111122,1111122,1199999999' 
CenGOOS,ioos:station:wmo:42067:1,2009-07-17T21:40:00Z,30.0430,-88.6490,2.0,158.01371184328,12.660774067963,-99999.0,'1111122,1111122,1199999999' 
CenGOOS,ioos:station:wmo:42067:1,2009-07-17T23:40:00Z,30.0430,-88.6490,2.0,102.06434261671,7.894358745332,-99999.0,'1111122,1111122,1199999999' 
CenGOOS,ioos:station:wmo:42067:1,2009-07-18T01:40:00Z,30.0430,-88.6490,2.0,131.41326617335,9.7205452521965,-99999.0,'1111122,1111122,1199999999' 
CenGOOS,ioos:station:wmo:42067:1,2009-07-18T03:40:00Z,30.0430,-88.6490,2.0,132.39424102355,5.7547284905545,-99999.0,'1111122,1111122,1199999999' 
CenGOOS,ioos:station:wmo:42067:1,2009-07-18T04:40:00Z,30.0430,-88.6490,2.0,132.76520114126,2.9013445159098,-99999.0,'1111122,1111122,1199999999' 
CenGOOS,ioos:station:wmo:42067:1,2009-07-18T05:40:00Z,30.0430,-88.6490,2.0,199.8614165537,2.4135658267385,-99999.0,'1111122,1111122,1199999999' 
CenGOOS,ioos:station:wmo:42067:1,2009-07-18T06:40:00Z,30.0430,-88.6490,2.0,277.10590501555,3.7185615498469,-99999.0,'1111122,1111122,1199999999' 
CenGOOS,ioos:station:wmo:42067:1,2009-07-18T07:40:00Z,30.0430,-88.6490,2.0,134.66688875608,2.4324884377937,-99999.0,'1111122,1111122,1199999999' 
CenGOOS,ioos:station:wmo:42067:1,2009-07-18T11:40:00Z,30.0430,-88.6490,2.0,172.61395684873,8.1677720340372,-99999.0,'1111122,1111122,1199999999' 
CenGOOS,ioos:station:wmo:42067:1,2009-07-18T12:40:00Z,30.0430,-88.6490,2.0,210.33733478646,6.1177201635904,-99999.0,'1111122,1111122,1199999999' 
CenGOOS,ioos:station:wmo:42067:1,2009-07-18T13:40:00Z,30.0430,-88.6490,2.0,241.05125946668,4.7311415113057,-99999.0,'1111122,1111122,1199999999' 
CenGOOS,ioos:station:wmo:42067:1,2009-07-18T15:40:00Z,30.0430,-88.6490,2.0,186.37363936588,1.8916923639958,-99999.0,'1111122,1111122,1199999999' 
CenGOOS,ioos:station:wmo:42067:1,2009-07-18T17:40:00Z,30.0430,-88.6490,2.0,184.21185349009,10.347946656221,-99999.0,'1111122,1111122,1199999999' 
CenGOOS,ioos:station:wmo:42067:1,2009-07-18T19:40:00Z,30.0430,-88.6490,2.0,185.59775871969,7.073733102118,-99999.0,'1111122,1111122,1199999999' 
CenGOOS,ioos:station:wmo:42067:1,2009-07-18T21:40:00Z,30.0430,-88.6490,2.0,151.46001481204,1.946535383701,-99999.0,'1111122,1111122,1199999999' 
CenGOOS,ioos:station:wmo:42067:1,2009-07-18T23:40:00Z,30.0430,-88.6490,2.0,30.710177984916,7.3625063667205,-99999.0,'1111122,1111122,1199999999' 
CenGOOS,ioos:station:wmo:42067:1,2009-07-19T00:40:00Z,30.0430,-88.6490,2.0,16.872903569052,9.1645239920031,-99999.0,'1111122,1111122,1199999999' 
CenGOOS,ioos:station:wmo:42067:1,2009-07-19T03:40:00Z,30.0430,-88.6490,2.0,33.418746014243,20.499175593179,-99999.0,'1111122,1111122,1199999999' 
CenGOOS,ioos:station:wmo:42067:1,2009-07-19T04:40:00Z,30.0430,-88.6490,2.0,57.936349917583,18.761972177786,-99999.0,'1111122,1111122,1199999999' 
CenGOOS,ioos:station:wmo:42067:1,2009-07-19T05:40:00Z,30.0430,-88.6490,2.0,70.556563415638,18.685630842977,-99999.0,'1111122,1111122,1199999999' 
CenGOOS,ioos:station:wmo:42067:1,2009-07-19T06:40:00Z,30.0430,-88.6490,2.0,98.285138754428,16.724550816091,-99999.0,'1111122,1111122,1199999999' 